This is the latest recevied weather packets stored in our database for station/object N1ORT. If no packets are shown the sender has not sent any weather packets the latest 10 day(s).
| Time | Temp. | Humidity | Pressure | Rain* | Wind** | Luminosity | Snow |
|---|---|---|---|---|---|---|---|
| 1777933477 | 21.67° C | 33% | 1004.4 hPa | 0 mm | - | 56 W/m² | - |
| 1777933175 | 21.67° C | 33% | 1004.4 hPa | 0 mm | - | 59 W/m² | - |
| 1777932872 | 21.67° C | 32% | 1004.7 hPa | 0 mm | - | 60 W/m² | - |
| 1777932569 | 21.67° C | 32% | 1004.4 hPa | 0 mm | - | 64 W/m² | - |
| 1777932265 | 21.67° C | 34% | 1004.4 hPa | 0 mm | - | 100 W/m² | - |
| 1777931963 | 21.67° C | 31% | 1004.3 hPa | 0 mm | - | 98 W/m² | - |
| 1777931659 | 21.67° C | 32% | 1004.4 hPa | 0 mm | - | 90 W/m² | - |
| 1777931356 | 21.67° C | 33% | 1004.4 hPa | 0 mm | - | 105 W/m² | - |
| 1777931052 | 21.67° C | 31% | 1004 hPa | 0 mm | - | 73 W/m² | - |
| 1777930749 | 21.11° C | 33% | 1004.3 hPa | 0 mm | - | 136 W/m² | - |
| 1777930445 | 21.67° C | 31% | 1004.4 hPa | 0 mm | - | 74 W/m² | - |
| 1777930143 | 21.67° C | 31% | 1004.5 hPa | 0 mm | - | 88 W/m² | - |
| 1777929838 | 22.22° C | 30% | 1004.4 hPa | 0 mm | - | 206 W/m² | - |
| 1777929536 | 22.22° C | 31% | 1004.3 hPa | 0 mm | - | 288 W/m² | - |
| 1777929232 | 22.78° C | 32% | 1004.3 hPa | 0 mm | - | 99 W/m² | - |
| 1777928930 | 22.78° C | 31% | 1004.3 hPa | 0 mm | - | 298 W/m² | - |
| 1777928626 | 22.78° C | 33% | 1004.2 hPa | 0 mm | - | 203 W/m² | - |
| 1777928323 | 22.22° C | 30% | 1004.5 hPa | 0 mm | - | 340 W/m² | - |
| 1777928021 | 22.78° C | 31% | 1004.2 hPa | 0 mm | - | 219 W/m² | - |
| 1777927719 | 22.22° C | 30% | 1004.2 hPa | 0 mm | - | 300 W/m² | - |
| 1777927418 | 22.78° C | 31% | 1004.3 hPa | 0 mm | - | 182 W/m² | - |
| 1777927117 | 22.78° C | 29% | 1004.1 hPa | 0 mm | - | 340 W/m² | - |
| 1777926813 | 23.33° C | 29% | 1004.1 hPa | 0 mm | - | 379 W/m² | - |
| 1777926509 | 22.78° C | 30% | 1004.2 hPa | 0 mm | - | 472 W/m² | - |
| 1777926206 | 22.22° C | 29% | 1004.4 hPa | 0 mm | - | 515 W/m² | - |
* Rain latest hour (hover to see other rain measurements)
** Current wind speed in m/s (hover to see current wind gust speed)